TimeAEDT,TemperatureF,Dew PointF,Humidity,Sea Level PressureIn,VisibilityMPH,Wind Direction,Wind SpeedMPH,Gust SpeedMPH,PrecipitationIn,Events,Conditions,WindDirDegrees,DateUTC
12:00 AM,74,72,93,29.45,4,SW,8.1,,,,Overcast,220,2014-01-03 13:00:00
12:00 AM,73.4,71.6,94,29.44,4.3,SW,8.1,-,N/A,,Overcast,220,2014-01-03 13:00:00
12:13 AM,75.2,71.6,89,29.44,3.7,SW,9.2,-,N/A,,Overcast,230,2014-01-03 13:13:00
12:30 AM,75.2,71.6,89,29.44,3.7,SW,9.2,-,N/A,,Overcast,230,2014-01-03 13:30:00
1:00 AM,75.2,71.6,89,29.44,3.7,SW,10.4,-,N/A,,Overcast,230,2014-01-03 14:00:00
1:22 AM,73.4,73.4,100,29.44,3.7,WSW,8.1,-,N/A,,Overcast,250,2014-01-03 14:22:00
1:30 AM,73.4,71.6,94,29.42,3.7,West,8.1,-,N/A,,Overcast,260,2014-01-03 14:30:00
1:42 AM,73.4,71.6,94,29.42,4.3,WSW,9.2,-,N/A,,Overcast,250,2014-01-03 14:42:00
2:00 AM,73,71,92,29.44,,WSW,9.2,,,,,250,2014-01-03 15:00:00
2:00 AM,73.4,71.6,94,29.42,5.0,WSW,9.2,-,N/A,,Overcast,250,2014-01-03 15:00:00
2:22 AM,73.4,71.6,94,29.42,4.3,West,4.6,-,N/A,,Scattered Clouds,270,2014-01-03 15:22:00
3:00 AM,72,70,92,29.44,4,West,5.8,,,,,280,2014-01-03 16:00:00
3:00 AM,71.6,69.8,94,29.42,4.3,West,5.8,-,N/A,,Unknown,280,2014-01-03 16:00:00
3:02 AM,71.6,69.8,94,29.42,4.3,West,5.8,-,N/A,,Unknown,280,2014-01-03 16:02:00
3:30 AM,71.6,69.8,94,29.42,5.0,West,8.1,-,N/A,,Unknown,280,2014-01-03 16:30:00
4:00 AM,71.6,69.8,94,29.44,5.0,West,8.1,-,N/A,,Unknown,280,2014-01-03 17:00:00
4:29 AM,71.6,69.8,94,29.47,3.7,WSW,6.9,-,N/A,,Scattered Clouds,240,2014-01-03 17:29:00
4:30 AM,71.6,69.8,94,29.47,3.7,SW,6.9,-,N/A,,Scattered Clouds,230,2014-01-03 17:30:00
4:44 AM,71.6,69.8,94,29.47,6.2,SSW,18.4,-,N/A,,Mostly Cloudy,200,2014-01-03 17:44:00
5:00 AM,71,67,83,29.50,,SSW,20.7,,,,,200,2014-01-03 18:00:00
5:00 AM,71.6,66.2,83,29.50,6.2,SSW,20.7,-,N/A,,Mostly Cloudy,200,2014-01-03 18:00:00
5:04 AM,71.6,66.2,83,29.50,6.2,SSW,19.6,31.1,N/A,,Mostly Cloudy,210,2014-01-03 18:04:00
5:20 AM,71.6,66.2,83,29.50,6.2,SSW,15.0,-,N/A,,Scattered Clouds,210,2014-01-03 18:20:00
5:27 AM,71.6,66.2,83,29.50,6.2,SSW,15.0,-,N/A,,Mostly Cloudy,210,2014-01-03 18:27:00
5:30 AM,71.6,66.2,83,29.50,6.2,SSW,15.0,-,N/A,,Mostly Cloudy,210,2014-01-03 18:30:00
6:00 AM,71,66,80,29.54,,SSW,13.8,,,,,210,2014-01-03 19:00:00
6:00 AM,71.6,66.2,83,29.53,6.2,SSW,13.8,-,N/A,,Mostly Cloudy,210,2014-01-03 19:00:00
6:26 AM,71.6,66.2,83,29.53,6.2,SSW,12.7,-,N/A,,Scattered Clouds,200,2014-01-03 19:26:00
6:30 AM,71.6,66.2,83,29.53,6.2,South,11.5,-,N/A,,Scattered Clouds,190,2014-01-03 19:30:00
7:03 AM,71.6,66.2,83,29.56,6.2,SSW,16.1,-,N/A,,Mostly Cloudy,210,2014-01-03 20:03:00
7:27 AM,71.6,66.2,83,29.59,6.2,SSW,17.3,29.9,N/A,,Overcast,210,2014-01-03 20:27:00
7:30 AM,71.6,66.2,83,29.59,6.2,SSW,18.4,29.9,N/A,,Overcast,210,2014-01-03 20:30:00
8:00 AM,73,66,73,29.60,,SSW,19.6,,,,,210,2014-01-03 21:00:00
8:00 AM,73.4,66.2,78,29.59,6.2,SSW,19.6,-,N/A,,Overcast,210,2014-01-03 21:00:00
8:20 AM,73.4,66.2,78,29.59,6.2,SSW,18.4,-,N/A,,Overcast,200,2014-01-03 21:20:00
8:27 AM,73.4,66.2,78,29.59,6.2,SSW,15.0,-,N/A,,Overcast,200,2014-01-03 21:27:00
8:30 AM,73.4,66.2,78,29.62,6.2,SSW,15.0,-,N/A,,Overcast,200,2014-01-03 21:30:00
9:00 AM,73,66,73,29.63,,South,16.1,,,,Overcast,190,2014-01-03 22:00:00
9:00 AM,73.4,66.2,78,29.62,6.2,South,16.1,-,N/A,,Overcast,190,2014-01-03 22:00:00
9:30 AM,73.4,66.2,78,29.62,-9999.0,South,13.8,-,N/A,,Overcast,180,2014-01-03 22:30:00
10:00 AM,73.4,66.2,78,29.62,-9999.0,South,13.8,-,N/A,,Overcast,170,2014-01-03 23:00:00
10:30 AM,75.2,66.2,73,29.62,-9999.0,South,15.0,-,N/A,,Overcast,180,2014-01-03 23:30:00
11:00 AM,75,65,65,29.65,,South,15.0,,,,,180,2014-01-04 00:00:00
11:00 AM,75.2,66.2,73,29.62,-9999.0,South,15.0,-,N/A,,Mostly Cloudy,180,2014-01-04 00:00:00
11:12 AM,75.2,66.2,73,29.62,-9999.0,SE,13.8,-,N/A,,Mostly Cloudy,140,2014-01-04 00:12:00
11:24 AM,77.0,64.4,65,29.62,-9999.0,South,15.0,-,N/A,,Mostly Cloudy,170,2014-01-04 00:24:00
11:30 AM,75.2,66.2,73,29.62,-9999.0,South,15.0,-,N/A,,Mostly Cloudy,170,2014-01-04 00:30:00
12:00 PM,74,64,65,29.64,,SSE,13.8,,,,Overcast,150,2014-01-04 01:00:00
12:00 PM,75.2,64.4,69,29.62,-9999.0,SSE,13.8,-,N/A,,Overcast,150,2014-01-04 01:00:00
12:30 PM,77.0,64.4,65,29.62,-9999.0,SSE,15.0,-,N/A,,Overcast,150,2014-01-04 01:30:00
1:00 PM,77.0,62.6,61,29.62,6.2,SSE,15.0,-,N/A,,Scattered Clouds,160,2014-01-04 02:00:00
1:30 PM,75.2,62.6,65,29.62,6.2,SSE,15.0,-,N/A,,Mostly Cloudy,150,2014-01-04 02:30:00
2:00 PM,78,62,49,29.62,,SE,13.8,,,,,140,2014-01-04 03:00:00
2:00 PM,77.0,62.6,61,29.59,6.2,SE,13.8,-,N/A,,Mostly Cloudy,140,2014-01-04 03:00:00
2:30 PM,77.0,64.4,65,29.59,6.2,ESE,17.3,-,N/A,,Mostly Cloudy,110,2014-01-04 03:30:00
3:00 PM,76,63,56,29.60,,ESE,16.1,,,,,110,2014-01-04 04:00:00
3:00 PM,77.0,62.6,61,29.59,6.2,ESE,16.1,-,N/A,,Mostly Cloudy,110,2014-01-04 04:00:00
3:30 PM,75.2,62.6,65,29.59,6.2,ESE,17.3,-,N/A,,Scattered Clouds,110,2014-01-04 04:30:00
4:00 PM,77.0,62.6,61,29.59,6.2,SE,17.3,-,N/A,,Scattered Clouds,130,2014-01-04 05:00:00
4:30 PM,77.0,62.6,61,29.59,6.2,ESE,15.0,-,N/A,,Unknown,120,2014-01-04 05:30:00
5:00 PM,76,61,51,29.62,,East,12.7,,,,,90,2014-01-04 06:00:00
5:00 PM,75.2,60.8,61,29.59,6.2,East,12.7,-,N/A,,Unknown,90,2014-01-04 06:00:00
5:30 PM,75.2,62.6,65,29.59,6.2,East,15.0,-,N/A,,Scattered Clouds,90,2014-01-04 06:30:00
6:00 PM,75,62,54,29.63,,East,13.8,,,,,80,2014-01-04 07:00:00
6:00 PM,75.2,62.6,65,29.62,6.2,East,13.8,-,N/A,,Scattered Clouds,80,2014-01-04 07:00:00
6:30 PM,75.2,62.6,65,29.65,6.2,ESE,12.7,-,N/A,,Unknown,110,2014-01-04 07:30:00
7:00 PM,73.4,62.6,69,29.65,6.2,ENE,11.5,-,N/A,,Scattered Clouds,70,2014-01-04 08:00:00
7:30 PM,73.4,62.6,69,29.68,6.2,ENE,10.4,-,N/A,,Mostly Cloudy,70,2014-01-04 08:30:00
8:00 PM,72,63,66,29.71,,East,9.2,,,,,80,2014-01-04 09:00:00
8:00 PM,71.6,62.6,73,29.71,6.2,East,9.2,-,N/A,,Scattered Clouds,80,2014-01-04 09:00:00
8:30 PM,71.6,64.4,78,29.71,6.2,East,8.1,-,N/A,,Unknown,90,2014-01-04 09:30:00
9:00 PM,70,64,74,29.74,,East,8.1,,,,,100,2014-01-04 10:00:00
9:00 PM,69.8,64.4,83,29.74,6.2,East,8.1,-,N/A,,Unknown,100,2014-01-04 10:00:00
9:30 PM,69.8,62.6,78,29.74,6.2,ESE,8.1,-,N/A,,Mostly Cloudy,110,2014-01-04 10:30:00
10:00 PM,69.8,62.6,78,29.74,6.2,East,8.1,-,N/A,,Overcast,100,2014-01-04 11:00:00
10:30 PM,71.6,64.4,78,29.77,6.2,ESE,8.1,-,N/A,,Overcast,110,2014-01-04 11:30:00
11:00 PM,71,64,72,29.78,,ESE,8.1,,,,,110,2014-01-04 12:00:00
11:00 PM,71.6,64.4,78,29.77,6.2,ESE,8.1,-,N/A,,Overcast,110,2014-01-04 12:00:00
11:30 PM,71.6,64.4,78,29.77,6.2,East,8.1,-,N/A,,Overcast,100,2014-01-04 12:30:00